MDT,Max TemperatureF,Mean TemperatureF,Min TemperatureF,Max Dew PointF,MeanDew PointF,Min DewpointF,Max Humidity, Mean Humidity, Min Humidity, Max Sea Level PressureIn, Mean Sea Level PressureIn, Min Sea Level PressureIn, Max VisibilityMiles, Mean VisibilityMiles, Min VisibilityMiles, Max Wind SpeedMPH, Mean Wind SpeedMPH, Max Gust SpeedMPH,PrecipitationIn, CloudCover, Events, WindDirDegrees
2012-7-1,88,68,48,53,46,33,71,46,21,29.89,29.76,29.69,10,10,10,24,13,30,0.00,0,,237
2012-7-2,90,74,57,52,44,29,67,42,17,29.90,29.80,29.68,10,10,10,14,7,18,0.00,0,,264
2012-7-3,85,71,56,46,39,27,53,38,22,29.81,29.75,29.64,10,10,10,32,15,37,0.00,0,,243
2012-7-4,90,73,56,49,34,19,45,29,12,29.96,29.82,29.71,10,10,10,17,9,23,0.00,0,,259
2012-7-5,75,64,52,55,48,37,83,56,29,30.07,29.89,29.72,10,10,10,24,9,30,T,3,Rain,221
2012-7-6,91,68,45,53,47,34,93,54,14,30.22,30.07,30.02,10,10,9,18,5,26,0.00,1,,33
2012-7-7,93,71,48,53,46,40,77,48,18,30.23,30.06,29.97,10,10,10,29,7,33,0.00,1,Thunderstorm,360
2012-7-8,95,75,54,52,48,41,77,47,16,30.10,30.05,29.99,10,10,10,22,7,33,0.00,1,,22
2012-7-9,99,74,49,52,46,34,89,51,12,30.07,30.01,29.93,10,10,10,29,6,31,0.00,1,,31
2012-7-10,97,75,53,52,45,39,77,46,14,30.14,29.95,29.88,10,10,10,22,8,33,0.00,1,,47
2012-7-11,94,73,51,55,47,40,89,52,15,30.12,29.94,29.86,10,10,10,26,7,37,T,1,Thunderstorm,38
2012-7-12,100,76,51,57,44,21,83,45,6,29.95,29.87,29.78,10,10,10,13,5,16,0.00,0,,24
2012-7-13,92,77,62,60,50,38,60,39,18,29.96,29.89,29.80,10,10,10,26,7,35,0.09,3,Rain,336
2012-7-14,83,72,60,62,60,55,100,70,40,30.07,29.94,29.88,10,9,3,23,5,30,0.38,7,Rain,4
2012-7-15,86,70,54,61,56,45,100,66,32,30.03,29.92,29.79,10,6,0,22,6,26,T,4,Fog-Rain,48
2012-7-16,80,70,59,59,54,45,78,58,38,30.02,29.88,29.79,10,10,6,30,6,44,0.14,4,Rain-Thunderstorm,315
2012-7-17,89,70,50,55,46,31,89,51,13,29.92,29.86,29.81,10,10,10,18,5,23,T,1,Rain,207
2012-7-18,94,72,49,47,37,28,83,47,10,29.93,29.89,29.82,10,10,10,25,10,40,0.00,0,,220
2012-7-19,96,71,45,48,40,26,82,47,11,30.04,29.98,29.91,10,10,10,22,7,30,0.00,0,,357
2012-7-20,96,82,68,55,47,43,47,32,17,30.12,29.98,29.91,10,10,10,23,7,35,T,2,,350
2012-7-21,93,74,55,51,43,38,57,36,15,30.07,29.99,29.90,10,10,10,18,7,29,0.00,1,,216
2012-7-22,92,77,61,61,52,45,78,49,20,30.15,29.97,29.89,10,10,8,25,6,32,0.08,2,Rain-Thunderstorm,94
2012-7-23,92,72,52,55,48,42,89,54,18,30.11,29.95,29.89,10,10,10,23,10,29,0.00,0,,270
2012-7-24,86,75,64,50,46,41,53,38,23,29.95,29.90,29.85,10,10,10,17,8,23,T,4,Rain,227
2012-7-25,92,71,50,49,44,35,83,49,15,29.97,29.91,29.85,10,10,10,16,5,21,0.00,0,,287
2012-7-26,97,74,51,50,43,34,77,45,12,29.95,29.87,29.78,10,10,10,30,6,40,0.00,0,,9
2012-7-27,98,78,57,46,40,30,67,39,10,30.00,29.81,29.75,10,10,10,31,11,41,T,2,,193
2012-7-28,97,74,50,52,45,32,83,48,13,29.98,29.90,29.84,10,10,10,13,5,17,0.00,0,,343
2012-7-29,96,75,54,48,39,24,64,36,8,30.05,29.93,29.86,10,10,10,15,7,20,0.00,1,,267
2012-7-30,99,74,48,51,37,25,59,33,7,29.96,29.89,29.82,10,10,10,14,5,18,0.00,1,,308
2012-7-31,95,77,58,53,45,28,64,40,15,30.12,29.93,29.86,10,10,10,18,6,24,0.00,1,,271